| time (UTC) | temp C | wind direction | speed KPH | gust KPH | rain 1hr cm | rain 24hr cm | rain mn cm | humidity % | barometer mb |
| 20260506080111 | 8 | 0 | 1.6 | 9.7 | 0.00 | 0.00 | 0.00 | 82 | 1014.0 |
| 20260506073111 | 8 | 321 | 1.6 | 9.7 | 0.00 | 0.00 | 0.00 | 81 | 1013.5 |
| 20260506071600 | 8 | 5 | 0.0 | 8.0 | 0.00 | 0.00 | 0.00 | 81 | 1014.0 |
| 20260506061604 | 8 | 0 | 1.6 | 8.0 | 0.00 | 0.00 | 0.00 | 80 | 1013.7 |
| 20260506050103 | 9 | 15 | 1.6 | 8.0 | 0.00 | 0.00 | 0.00 | 78 | 1014.2 |
| 20260506044608 | 8 | 27 | 3.2 | 11.3 | 0.00 | 0.00 | 0.00 | 77 | 1014.3 |
| 20260506043058 | 9 | 0 | 1.6 | 11.3 | 0.00 | 0.00 | 0.00 | 78 | 1014.1 |
| 20260506041609 | 9 | 315 | 3.2 | 12.9 | 0.00 | 0.00 | 0.00 | 77 | 1014.4 |
| 20260506040101 | 9 | 11 | 1.6 | 12.9 | 0.00 | 0.00 | 0.00 | 77 | 1014.2 |
| 20260506034601 | 9 | 0 | 1.6 | 9.7 | 0.00 | 0.00 | 0.00 | 75 | 1014.4 |
| 20260506033057 | 9 | 17 | 1.6 | 11.3 | 0.00 | 0.00 | 0.00 | 74 | 1014.0 |
| 20260506031559 | 10 | 19 | 1.6 | 8.0 | 0.00 | 0.00 | 0.00 | 71 | 1013.6 |
| 20260506030108 | 10 | 23 | 0.0 | 8.0 | 0.00 | 0.00 | 0.00 | 73 | 1013.4 |
| 20260506024613 | 10 | 13 | 1.6 | 8.0 | 0.00 | 0.00 | 0.00 | 74 | 1012.9 |
| 20260506023100 | 10 | 0 | 0.0 | 6.4 | 0.00 | 0.00 | 0.00 | 76 | 1012.8 |
| 20260506021558 | 10 | 5 | 1.6 | 9.7 | 0.00 | 0.00 | 0.00 | 74 | 1012.0 |
| 20260506020123 | 10 | 334 | 3.2 | 8.0 | 0.00 | 0.00 | 0.00 | 72 | 1012.1 |
| 20260506014558 | 10 | 49 | 1.6 | 12.9 | 0.00 | 0.00 | 0.00 | 72 | 1012.3 |
| 20260506013055 | 10 | 73 | 1.6 | 16.1 | 0.00 | 0.00 | 0.00 | 72 | 1011.8 |
| 20260506011601 | 10 | 290 | 3.2 | 12.9 | 0.00 | 0.00 | 0.00 | 72 | 1011.5 |
| 20260506010103 | 10 | 70 | 3.2 | 16.1 | 0.00 | 0.00 | 0.00 | 72 | 1011.3 |
| 20260506004558 | 10 | 320 | 4.8 | 17.7 | 0.00 | 0.00 | 0.00 | 72 | 1011.0 |
| 20260506003056 | 10 | 24 | 3.2 | 16.1 | 0.00 | 0.00 | 0.00 | 72 | 1010.8 |
| 20260506001606 | 10 | 32 | 3.2 | 16.1 | 0.00 | 0.00 | 0.00 | 73 | 1010.8 |
| 20260506000125 | 10 | 0 | 3.2 | 14.5 | 0.00 | 0.00 | 0.00 | 72 | 1010.9 |
| 20260505234615 | 10 | 137 | 3.2 | 16.1 | 0.00 | 0.00 | 0.00 | 72 | 1011.0 |
| 20260505233058 | 10 | 51 | 3.2 | 17.7 | 0.00 | 0.00 | 0.00 | 74 | 1010.9 |
| 20260505231601 | 10 | 52 | 1.6 | 14.5 | 0.00 | 0.00 | 0.00 | 75 | 1010.8 |
| 20260505230104 | 11 | 46 | 3.2 | 14.5 | 0.00 | 0.00 | 0.00 | 73 | 1010.5 |
| 20260505224613 | 11 | 58 | 3.2 | 12.9 | 0.00 | 0.00 | 0.00 | 72 | 1010.3 |
| 20260505223105 | 11 | 317 | 4.8 | 20.9 | 0.00 | 0.00 | 0.00 | 71 | 1010.2 |
| 20260505221601 | 11 | 159 | 4.8 | 14.5 | 0.00 | 0.00 | 0.00 | 69 | 1010.1 |
| 20260505220107 | 11 | 36 | 3.2 | 16.1 | 0.00 | 0.00 | 0.00 | 70 | 1010.1 |
| 20260505214605 | 11 | 65 | 4.8 | 14.5 | 0.00 | 0.00 | 0.00 | 69 | 1009.7 |
| 20260505213056 | 11 | 23 | 3.2 | 17.7 | 0.00 | 0.00 | 0.00 | 70 | 1009.8 |
| 20260505211631 | 11 | 30 | 3.2 | 22.5 | 0.00 | 0.00 | 0.00 | 69 | 1009.9 |
| 20260505210100 | 12 | 17 | 4.8 | 14.5 | 0.00 | 0.00 | 0.00 | 69 | 1009.8 |
| 20260505204605 | 12 | 23 | 6.4 | 16.1 | 0.00 | 0.00 | 0.00 | 68 | 1009.5 |
| 20260505203058 | 12 | 73 | 4.8 | 19.3 | 0.00 | 0.00 | 0.00 | 67 | 1009.9 |
| 20260505201559 | 12 | 19 | 4.8 | 17.7 | 0.00 | 0.00 | 0.00 | 67 | 1009.6 |
| 20260505200059 | 12 | 360 | 3.2 | 12.9 | 0.00 | 0.00 | 0.00 | 68 | 1009.5 |
| 20260505194558 | 12 | 63 | 1.6 | 14.5 | 0.00 | 0.00 | 0.00 | 68 | 1009.8 |
| 20260505193056 | 12 | 332 | 4.8 | 20.9 | 0.00 | 0.00 | 0.00 | 68 | 1009.6 |
| 20260505191604 | 12 | 347 | 4.8 | 16.1 | 0.00 | 0.00 | 0.00 | 67 | 1009.4 |
| 20260505190114 | 12 | 46 | 3.2 | 14.5 | 0.00 | 0.00 | 0.00 | 67 | 1009.2 |
| 20260505184557 | 12 | 327 | 3.2 | 14.5 | 0.00 | 0.00 | 0.00 | 66 | 1009.3 |
| 20260505183059 | 12 | 299 | 4.8 | 20.9 | 0.00 | 0.00 | 0.00 | 68 | 1009.0 |
| 20260505181640 | 12 | 0 | 4.8 | 20.9 | 0.00 | 0.00 | 0.00 | 69 | 1008.8 |
| 20260505180105 | 12 | 5 | 4.8 | 16.1 | 0.00 | 0.00 | 0.00 | 70 | 1008.8 |
| 20260505174556 | 12 | 360 | 4.8 | 20.9 | 0.00 | 0.00 | 0.00 | 69 | 1008.6 |
| 20260505173058 | 12 | 296 | 3.2 | 16.1 | 0.00 | 0.00 | 0.00 | 71 | 1008.5 |
| 20260505171603 | 12 | 306 | 1.6 | 17.7 | 0.00 | 0.00 | 0.00 | 72 | 1008.4 |
| 20260505170057 | 12 | 15 | 4.8 | 16.1 | 0.00 | 0.00 | 0.00 | 76 | 1008.1 |
| 20260505164558 | 12 | 360 | 4.8 | 17.7 | 0.00 | 0.00 | 0.00 | 78 | 1008.0 |
| 20260505163058 | 12 | 61 | 1.6 | 14.5 | 0.00 | 0.00 | 0.00 | 80 | 1007.8 |
| 20260505161557 | 12 | 40 | 3.2 | 17.7 | 0.00 | 0.00 | 0.00 | 80 | 1007.4 |
| 20260505153103 | 12 | 50 | 4.8 | 14.5 | 0.00 | 0.00 | 0.00 | 83 | 1007.2 |
| 20260505151602 | 12 | 64 | 1.6 | 14.5 | 0.00 | 0.00 | 0.00 | 83 | 1007.0 |
| 20260505150111 | 12 | 360 | 3.2 | 16.1 | 0.00 | 0.00 | 0.00 | 83 | 1007.2 |
| 20260505140109 | 13 | 344 | 4.8 | 17.7 | 0.00 | 0.00 | 0.00 | 81 | 1005.7 |
| 20260505124557 | 16 | 0 | 1.6 | 9.7 | 0.00 | 0.00 | 0.00 | 81 | 1005.1 |
| 20260505123101 | 16 | 71 | 3.2 | 16.1 | 0.00 | 0.00 | 0.00 | 81 | 1005.0 |
| 20260505121559 | 17 | 49 | 3.2 | 12.9 | 0.00 | 0.00 | 0.00 | 82 | 1004.5 |
| 20260505120117 | 17 | 36 | 0.0 | 4.8 | 0.00 | 0.00 | 0.00 | 83 | 1004.2 |
| 20260505114600 | 17 | 64 | 1.6 | 9.7 | 0.00 | 0.00 | 0.00 | 83 | 1004.0 |
| 20260505113101 | 17 | 5 | 0.0 | 6.4 | 0.00 | 0.00 | 0.00 | 83 | 1003.7 |
| 20260505111557 | 17 | 0 | 1.6 | 8.0 | 0.00 | 0.00 | 0.00 | 82 | 1003.8 |
| 20260505110113 | 17 | 0 | 1.6 | 8.0 | 0.00 | 0.00 | 0.00 | 82 | 1003.6 |
| 20260505101604 | 18 | 84 | 1.6 | 14.5 | 0.00 | 0.00 | 0.00 | 79 | 1002.5 |
| 20260505100056 | 18 | 82 | 3.2 | 11.3 | 0.00 | 0.00 | 0.00 | 80 | 1002.5 |
| 20260505094558 | 18 | 69 | 3.2 | 16.1 | 0.00 | 0.00 | 0.00 | 80 | 1002.7 |
| 20260505093056 | 18 | 52 | 3.2 | 14.5 | 0.00 | 0.00 | 0.00 | 79 | 1002.8 |
| 20260505091559 | 18 | 68 | 3.2 | 11.3 | 0.00 | 0.00 | 0.00 | 78 | 1002.8 |
| 20260505090058 | 18 | 61 | 1.6 | 11.3 | 0.00 | 0.00 | 0.00 | 76 | 1002.7 |
| 20260505084605 | 18 | 77 | 3.2 | 11.3 | 0.00 | 0.00 | 0.00 | 76 | 1002.6 |
| 20260505083109 | 18 | 59 | 0.0 | 9.7 | 0.00 | 0.00 | 0.00 | 76 | 1002.6 |
| 20260505081556 | 18 | 71 | 1.6 | 4.8 | 0.00 | 0.00 | 0.00 | 76 | 1002.4 |